Location: Marengo
(51.4813°N, 109.7825°W)
Time: 01:01:41
(UTC+00:00)

BlueWalker 3 - Pass Details

Date: 10 December 2022
Orbit: 499 x 517 km, 53.2° (Epoch: 26 January)

Event Time Altitude Azimuth Distance (km) Brightness Sun altitude
Rises 02:33:57 0° 282° (WNW) 2,625 6.7 -30.4°
Reaches altitude 10° 02:37:29 10° 249° (WSW) 1,727 5.4 -30.9°
Maximum altitude 02:38:49 12° 229° (SW) 1,629 5.0 -31.1°
Enters shadow 02:39:16 11° 222° (SW) 1,638 4.9 -31.2°
